Preview of NWS' New Version of Forecast
This preview is not operational and should not be used for support decisions.

Regional Weather Roundup (RWR)

Issued by Philadelphia/Mt Holly (PHI)

                            
000
ASUS41 KPHI 220712
RWRPHI

REGIONAL WEATHER ROUNDUP
NATIONAL WEATHER SERVICE MOUNT HOLLY NJ
300 AM EDT FRI MAR 22 2019

NOTE:  "FAIR" INDICATES FEW OR NO CLOUDS BELOW 12,000 FEET WITH NO
SIGNIFICANT WEATHER AND/OR OBSTRUCTIONS TO VISIBILITY.

 * = STATION DOES NOT REPORT PRECIPITATION (E.G. RAIN, SNOW, ETC.) 
        OR FOG.

NJZ015>026-220800-
SOUTHERN NEW JERSEY
  
CITY           SKY/WX    TMP DP  RH WIND       PRES   REMARKS
POMONA         LGT RAIN  46  46 100 N3        29.31F VSB 3/4          
WILDWOOD*      FOG       46  46 100 W6        29.31F VSB 1            
MILLVILLE      LGT RAIN  48  48 100 CALM      29.31F FOG              
MOUNT HOLLY    LGT RAIN  46  44  93 N10       29.35F                  
TRENTON        LGT RAIN  44  43  96 N8G16     29.37F                  

$$
NJZ001>014-220800-
NORTHERN NEW JERSEY
  
CITY           SKY/WX    TMP DP  RH WIND       PRES   REMARKS
SUSSEX         LGT RAIN  40  38  93 NE15G23   29.45F WCI  32          
ANDOVER*         N/A     39  37  92 VRB7      29.44F WCI  34          
MORRISTOWN     LGT RAIN  43  43 100 NE10G18   29.40F                  
NEWARK         LGT RAIN  45  43  93 N16G25    29.39F                  
TETERBORO      RAIN      45  42  89 N10       29.40F                  
CALDWELL       RAIN      43  43 100 NE7       29.41F FOG              
SOMERVILLE     CLOUDY    45  42  89 N12G23    29.38F                  
ALLAIRE*       CLOUDY    46  45  96 N18G26    29.32F FOG              
TOMS RIVER*    LGT RAIN  46  46 100 N7        29.33F                  

$$
PAZ043-044-047-054-055-060>062-066>071-220800-
EASTERN PENNSYLVANIA
  
CITY           SKY/WX    TMP DP  RH WIND       PRES   REMARKS
PHILADELPHIA   LGT RAIN  46  43  89 N18G25    29.38S FOG              
NORTH PHILA    LGT RAIN  46  42  86 N16       29.39F                  
BLUE BELL*     CLOUDY    43  43 100 N5        29.41S                  
DOYLESTOWN     LGT RAIN  43  41  93 N9        29.38F                  
QUAKERTOWN*    CLOUDY    41  41 100 NW13G20   29.42F                  
PERKASIE*      LGT RAIN  41  41 100 N6        29.41F                  
POTTSTOWN      LGT RAIN  41  41 100 N14G22    29.43S FOG              
LANCASTER      RAIN      43  39  86 NW17G25   29.49F                  
COATESVILLE    LGT RAIN  41  41 100 N14G23    29.43F                  
READING        RAIN      42  41  96 N16G25    29.46F                  
ALLENTOWN      RAIN      44  39  82 N10       29.45F                  
MOUNT POCONO   RAIN      34  34 100 NW15      29.45F WCI  24          
HAZLETON       LGT SNOW  34  34 100 NW14      29.54F WCI  24          
LEHIGHTON      HVY RAIN  41  36  81 NW6G20    29.50F                  
WILKES BARRE   RAIN      37  34  89 N7        29.54F WCI  32          

$$
DEZALL-MDZ008-012-015-019-020-220800-
DELAWARE AND EASTERN MARYLAND
  
CITY           SKY/WX    TMP DP  RH WIND       PRES   REMARKS
WILMINGTON     LGT RAIN  45  43  93 NW17      29.39S FOG              
DOVER          LGT RAIN  46  46 100 NW22G28   29.34F FOG              
GEORGETOWN     LGT RAIN  51  48  89 W14G23    29.34S FOG              
EASTON         DRIZZLE   46  44  90 NW25G35   29.47R                  
PATUXENT       LGT RAIN  44  43  96 W23G33    29.50                   
OCEAN CITY     CLOUDY    44  43  96 W14G25    29.36F FOG              
WALLOPS ISLAND LGT RAIN  45  42  89 W24G31    29.44S FOG              
CAMBRIDGE      CLOUDY    45  43  93 NW18G30   29.44R                  
SALISBURY      CLOUDY    44  44 100 W18G29    29.39S FOG              

$$
PAZ001-021-NYZ056-072-MDZ011-DCZ001-220800-
OTHER NEARBY LOCATIONS
  
CITY           SKY/WX    TMP DP  RH WIND       PRES   REMARKS
HARRISBURG     RAIN      42  37  82 NW17      29.54F                  
STATE COLLEGE  RAIN      38  37  96 NW7       29.63F WCI  33          
WILLIAMSPORT   LGT RAIN  38  37  97 W9        29.60F WCI  31          
BINGHAMTON     LGT SNOW  33  32  96 N10       29.56F FOG     WCI  25  
NEW YORK CITY  LGT RAIN  46  44  93 NE12G23   29.40  FOG              
BALTIMORE      LGT RAIN  42  40  92 NW20G26   29.48R                  
WASHINGTON DC  LGT RAIN  44  38  79 NW17G30   29.55S                  

$$